• en Suisse
  • Liste des pays
  • À 7 jours
  • Température de l'eau
  • Carte satellitaire
  • Carte météo
  • Widgets météo
  • user-avatar
    Se connecter

    Météo par heure à Aminevo

    Ce jour, 19 Septembre, Mercredi

    Heure Température Précipitation Vent Pression Humidité
    00:00 +13°C° 0 mm 3 m/s 705 mmHg 62%
    01:00 +13°C° 0 mm 3 m/s 705 mmHg 65%
    02:00 +12°C° 0 mm 3 m/s 704 mmHg 73%
    03:00 +10°C° 0 mm 3 m/s 704 mmHg 81%
    04:00 +9°C° 0 mm 3 m/s 703 mmHg 89%
    05:00 +10°C° 0.1 mm 3 m/s 703 mmHg 89%
    06:00 +10°C° 0.1 mm 4 m/s 703 mmHg 89%
    07:00 +10°C° 0.1 mm 4 m/s 703 mmHg 90%
    08:00 +10°C° 0.4 mm 5 m/s 703 mmHg 87%
    09:00 +10°C° 0.4 mm 5 m/s 703 mmHg 85%
    10:00 +11°C° 0.4 mm 6 m/s 703 mmHg 83%
    11:00 +11°C° 0.3 mm 6 m/s 703 mmHg 83%
    12:00 +11°C° 0.3 mm 6 m/s 703 mmHg 83%
    13:00 +10°C° 0.3 mm 6 m/s 704 mmHg 83%
    14:00 +10°C° 0.2 mm 5 m/s 704 mmHg 82%
    15:00 +9°C° 0.2 mm 5 m/s 704 mmHg 82%
    16:00 +9°C° 0.2 mm 5 m/s 704 mmHg 82%
    17:00 +8°C° 0.1 mm 4 m/s 704 mmHg 84%
    18:00 +9°C° 0.1 mm 3 m/s 704 mmHg 87%
    19:00 +8°C° 0.1 mm 3 m/s 705 mmHg 90%
    20:00 +8°C° 0 mm 3 m/s 705 mmHg 91%
    21:00 +7°C° 0 mm 2 m/s 705 mmHg 93%
    22:00 +6°C° 0 mm 2 m/s 705 mmHg 95%
    23:00 +6°C° 0 mm 2 m/s 705 mmHg 95%

    Demain, 20 Septembre, Jeudi

    Heure Température Précipitation Vent Pression Humidité
    00:00 +5°C° 0 mm 2 m/s 705 mmHg 95%
    01:00 +5°C° 0 mm 2 m/s 705 mmHg 96%
    02:00 +5°C° 0 mm 2 m/s 705 mmHg 95%
    03:00 +5°C° 0 mm 2 m/s 705 mmHg 95%
    04:00 +5°C° 0 mm 2 m/s 705 mmHg 94%
    05:00 +5°C° 0 mm 2 m/s 705 mmHg 94%
    06:00 +5°C° 0 mm 2 m/s 705 mmHg 93%
    07:00 +5°C° 0 mm 2 m/s 705 mmHg 93%
    08:00 +6°C° 0 mm 2 m/s 706 mmHg 88%
    09:00 +8°C° 0 mm 3 m/s 706 mmHg 84%
    10:00 +8°C° 0 mm 4 m/s 706 mmHg 80%
    11:00 +8°C° 0 mm 4 m/s 707 mmHg 79%
    12:00 +10°C° 0 mm 4 m/s 707 mmHg 78%
    13:00 +10°C° 0 mm 4 m/s 707 mmHg 77%
    14:00 +9°C° 0 mm 5 m/s 707 mmHg 78%
    15:00 +8°C° 0 mm 5 m/s 707 mmHg 79%
    16:00 +8°C° 0 mm 5 m/s 707 mmHg 80%
    17:00 +7°C° 0 mm 5 m/s 707 mmHg 82%
    18:00 +7°C° 0 mm 5 m/s 708 mmHg 84%
    19:00 +6°C° 0 mm 4 m/s 708 mmHg 86%
    20:00 +6°C° 0 mm 4 m/s 708 mmHg 87%
    21:00 +5°C° 0 mm 4 m/s 708 mmHg 87%
    22:00 +5°C° 0 mm 4 m/s 708 mmHg 87%
    23:00 +5°C° 0 mm 4 m/s 708 mmHg 87%

    Après-demain, 21 Septembre, Vendredi

    Heure Température Précipitation Vent Pression Humidité
    00:00 +5°C° 0 mm 4 m/s 708 mmHg 88%
    01:00 +5°C° 0 mm 4 m/s 708 mmHg 88%
    02:00 +5°C° 0.1 mm 4 m/s 708 mmHg 88%
    03:00 +5°C° 0.1 mm 4 m/s 708 mmHg 88%
    04:00 +5°C° 0.1 mm 4 m/s 708 mmHg 88%
    05:00 +5°C° 0.1 mm 5 m/s 708 mmHg 88%
    06:00 +5°C° 0.1 mm 5 m/s 708 mmHg 88%
    07:00 +5°C° 0.1 mm 5 m/s 709 mmHg 88%
    08:00 +6°C° 0.1 mm 5 m/s 709 mmHg 86%
    09:00 +6°C° 0.1 mm 5 m/s 709 mmHg 85%
    10:00 +7°C° 0.1 mm 5 m/s 710 mmHg 83%
    11:00 +7°C° 0 mm 5 m/s 710 mmHg 81%
    12:00 +8°C° 0 mm 5 m/s 710 mmHg 79%
    13:00 +8°C° 0 mm 5 m/s 710 mmHg 77%
    14:00 +8°C° 0 mm 5 m/s 711 mmHg 77%
    15:00 +8°C° 0 mm 6 m/s 711 mmHg 77%
    16:00 +8°C° 0 mm 6 m/s 711 mmHg 77%
    17:00 +8°C° 0 mm 5 m/s 712 mmHg 80%
    18:00 +7°C° 0 mm 4 m/s 712 mmHg 83%
    19:00 +6°C° 0 mm 4 m/s 712 mmHg 87%
    20:00 +6°C° 0 mm 4 m/s 713 mmHg 88%
    21:00 +6°C° 0 mm 4 m/s 713 mmHg 88%
    22:00 +6°C° 0 mm 4 m/s 713 mmHg 89%
    23:00 +5°C° 0 mm 3 m/s 714 mmHg 91%

    22 Septembre, Samedi

    Heure Température Précipitation Vent Pression Humidité
    00:00 +5°C° 0 mm 3 m/s 714 mmHg 92%
    01:00 +5°C° 0 mm 3 m/s 714 mmHg 94%
    02:00 +4°C° 0 mm 3 m/s 714 mmHg 94%
    03:00 +5°C° 0 mm 2 m/s 714 mmHg 94%
    04:00 +5°C° 0 mm 2 m/s 715 mmHg 94%
    05:00 +5°C° 0 mm 2 m/s 715 mmHg 93%
    06:00 +5°C° 0 mm 2 m/s 716 mmHg 93%
    07:00 +6°C° 0 mm 2 m/s 716 mmHg 93%
    08:00 +8°C° 0 mm 3 m/s 717 mmHg 84%
    09:00 +10°C° 0 mm 3 m/s 717 mmHg 76%
    10:00 +12°C° 0 mm 3 m/s 717 mmHg 68%
    11:00 +13°C° 0 mm 4 m/s 717 mmHg 62%
    12:00 +14°C° 0 mm 4 m/s 717 mmHg 57%
    13:00 +15°C° 0 mm 4 m/s 717 mmHg 51%
    14:00 +15°C° 0 mm 4 m/s 717 mmHg 53%
    15:00 +14°C° 0 mm 4 m/s 717 mmHg 54%
    16:00 +14°C° 0 mm 4 m/s 717 mmHg 55%
    17:00 +13°C° 0 mm 4 m/s 717 mmHg 65%
    18:00 +11°C° 0 mm 4 m/s 718 mmHg 74%
    19:00 +10°C° 0 mm 3 m/s 718 mmHg 84%
    20:00 +9°C° 0 mm 3 m/s 718 mmHg 87%
    21:00 +9°C° 0 mm 3 m/s 718 mmHg 90%
    22:00 +9°C° 0 mm 3 m/s 718 mmHg 94%
    23:00 +9°C° 0 mm 3 m/s 718 mmHg 94%

    23 Septembre, Dimanche

    Heure Température Précipitation Vent Pression Humidité
    00:00 +9°C° 0 mm 2 m/s 718 mmHg 95%
    01:00 +9°C° 0 mm 2 m/s 718 mmHg 95%
    02:00 +9°C° 0 mm 2 m/s 718 mmHg 96%
    03:00 +10°C° 0 mm 3 m/s 718 mmHg 96%
    04:00 +10°C° 0 mm 3 m/s 718 mmHg 96%
    05:00 +10°C° 0.1 mm 3 m/s 718 mmHg 96%
    06:00 +10°C° 0.1 mm 3 m/s 718 mmHg 96%
    07:00 +11°C° 0.1 mm 3 m/s 718 mmHg 96%
    08:00 +11°C° 0.2 mm 3 m/s 718 mmHg 94%
    09:00 +12°C° 0.2 mm 3 m/s 718 mmHg 93%
    10:00 +13°C° 0.2 mm 4 m/s 718 mmHg 91%
    11:00 +14°C° 0.1 mm 4 m/s 718 mmHg 87%
    12:00 +15°C° 0.1 mm 4 m/s 718 mmHg 83%
    13:00 +16°C° 0.1 mm 5 m/s 718 mmHg 79%
    14:00 +17°C° 0 mm 4 m/s 718 mmHg 79%
    15:00 +17°C° 0 mm 4 m/s 718 mmHg 79%
    16:00 +17°C° 0 mm 4 m/s 718 mmHg 79%
    17:00 +14°C° 0 mm 4 m/s 718 mmHg 84%
    18:00 +13°C° 0 mm 3 m/s 718 mmHg 89%
    19:00 +13°C° 0 mm 2 m/s 718 mmHg 93%
    20:00 +12°C° 0 mm 2 m/s 718 mmHg 94%
    21:00 +12°C° 0 mm 2 m/s 718 mmHg 94%
    22:00 +12°C° 0 mm 1 m/s 718 mmHg 95%
    23:00 +11°C° 0 mm 1 m/s 718 mmHg 95%

    24 Septembre, Lundi

    Heure Température Précipitation Vent Pression Humidité
    00:00 +11°C° 0 mm 1 m/s 718 mmHg 94%
    01:00 +11°C° 0 mm 1 m/s 718 mmHg 94%
    02:00 +11°C° 0 mm 1 m/s 718 mmHg 94%
    03:00 +11°C° 0 mm 1 m/s 718 mmHg 94%
    04:00 +10°C° 0 mm 1 m/s 718 mmHg 94%
    05:00 +11°C° 0 mm 1 m/s 718 mmHg 94%
    06:00 +10°C° 0 mm 2 m/s 718 mmHg 94%
    07:00 +10°C° 0 mm 2 m/s 718 mmHg 94%
    08:00 +13°C° 0 mm 2 m/s 718 mmHg 86%
    09:00 +15°C° 0 mm 2 m/s 718 mmHg 79%
    10:00 +17°C° 0 mm 3 m/s 718 mmHg 72%
    11:00 +18°C° 0 mm 3 m/s 718 mmHg 67%
    12:00 +19°C° 0 mm 3 m/s 718 mmHg 62%
    13:00 +20°C° 0 mm 3 m/s 718 mmHg 56%
    14:00 +20°C° 0 mm 3 m/s 718 mmHg 57%
    15:00 +20°C° 0 mm 3 m/s 718 mmHg 58%
    16:00 +20°C° 0 mm 3 m/s 718 mmHg 59%
    17:00 +18°C° 0 mm 3 m/s 718 mmHg 68%
    18:00 +16°C° 0 mm 2 m/s 718 mmHg 77%
    19:00 +14°C° 0 mm 2 m/s 718 mmHg 86%
    20:00 +14°C° 0 mm 2 m/s 718 mmHg 87%
    21:00 +13°C° 0 mm 2 m/s 718 mmHg 88%
    22:00 +12°C° 0 mm 1 m/s 718 mmHg 90%
    23:00 +12°C° 0 mm 1 m/s 718 mmHg 90%
    Voir plus